[[{"header":{"parameterUnit":"m.s-1","parameterCategory":1,"la1":30.2992,"la2":30.254,"lo1":-89.0895,"lo2":-89.0443,"dy":0.0025,"dx":0.0025,"nx":19,"ny":19,"refTime":"2026-04-19T09:00:00:Z","depth":0,"parameterNumber":2,"parameterNumberName":"U-component_of_WINDS"},"data":[0,0,0,1.688,1.6878,1.6811,1.681,1.6734,1.6733,0,0,0,0,0,0,0,0,0,0,0,1.6906,1.6905,1.688,1.6878,1.6811,1.681,1.6734,1.6733,0,0,0,0,0,0,0,0,0,0,0,1.6906,1.6905,1.6905,1.6878,1.6811,1.681,1.6734,1.6782,0,0,0,0,0,0,0,0,0,0,1.6846,1.6875,1.6905,1.6905,1.6878,1.6811,1.681,1.6784,1.6779,1.6769,0,1.6762,0,1.6747,1.6729,1.6729,0,0,0,1.6874,1.6879,1.6856,1.6905,1.6877,1.6811,1.684,1.6781,1.6775,1.6762,1.6761,1.6757,1.6745,1.6728,1.6728,1.6688,1.6688,0,0,1.6877,1.6896,1.686,1.6853,1.6864,1.6842,1.6838,1.6777,1.6776,1.676,1.6755,1.6744,1.6728,1.6728,1.6688,1.6688,0,0,0,1.6891,1.6899,1.6877,1.6856,1.6843,1.684,1.6835,1.6779,1.677,1.6755,1.6743,1.6728,1.6727,1.6688,1.6688,1.6708,0,0,0,1.6893,1.6907,1.6879,1.689,1.6845,1.681,1.6839,1.6775,1.6767,1.6743,1.6728,1.6726,1.6688,1.6688,1.6707,1.6714,0,0,0,1.6908,1.6909,1.6901,1.6891,1.6863,1.6811,1.6798,1.6772,1.676,1.6729,1.6726,1.6688,1.6688,1.6707,1.6713,1.6709,0,0,0,1.6929,1.6919,1.6902,1.6886,1.6863,1.6824,1.6798,1.6768,1.6743,1.6727,1.6688,1.6688,1.6707,1.6712,1.6709,1.6709,1.6711,0,0,1.6927,1.6919,1.6909,1.6892,1.686,1.6833,1.6804,1.6763,1.6742,1.6708,1.6706,1.6708,1.6713,1.6709,1.6718,1.672,0,0,0,1.6914,1.6907,1.6895,1.6873,1.6842,1.6816,1.6778,1.6763,1.6733,1.6729,1.6705,1.6708,1.6705,1.6704,1.6705,1.6702,1.6689,1.6689,1.6689,1.6937,1.6913,1.6894,1.6862,1.6841,1.6803,1.6784,1.6758,1.6738,1.6733,1.6722,1.6731,1.673,1.6731,1.6728,1.6721,1.6721,1.6721,1.6721,1.6931,1.6917,1.6894,1.6867,1.6842,1.6819,1.6783,1.6771,1.6746,1.6736,1.6732,1.6723,1.6734,1.673,1.6723,1.6722,1.6722,1.6722,1.6722,1.6943,1.6932,1.6915,1.6882,1.686,1.6828,1.6806,1.6784,1.6763,1.6759,1.6745,1.6745,1.6741,1.6754,1.6755,1.6755,1.6755,1.6755,1.6755,1.6961,1.6942,1.6926,1.6895,1.6879,1.6855,1.6818,1.6802,1.6778,1.6763,1.6763,1.6745,1.674,1.6739,1.6755,1.6755,1.6755,1.6755,1.6755,1.6963,1.6959,1.6935,1.6919,1.6882,1.6861,1.6834,1.6803,1.6787,1.6777,1.676,1.6761,1.6751,1.675,1.6749,1.6766,1.6766,1.6766,1.6766,1.6972,1.6966,1.6937,1.6913,1.6887,1.6861,1.6836,1.6809,1.678,1.6768,1.6763,1.676,1.676,1.675,1.6749,1.6747,1.6764,1.6764,1.6764,1.6971,1.6962,1.6944,1.6916,1.6886,1.6861,1.6836,1.6811,1.6777,1.6763,1.6759,1.6759,1.6754,1.6754,1.6737,1.6736,1.6733,0,0]},{"header":{"parameterUnit":"m.s-1","parameterCategory":1,"la1":30.2992,"la2":30.254,"lo1":-89.0895,"lo2":-89.0443,"dy":0.0025,"dx":0.0025,"nx":19,"ny":19,"refTime":"2026-04-19T09:00:00:Z","depth":0,"parameterNumber":3,"parameterNumberName":"V-component_of_WINDS"},"data":[0,0,0,-9.9826,-9.983,-9.9995,-9.9996,-10.0233,-10.0235,0,0,0,0,0,0,0,0,0,0,0,-9.9796,-9.9798,-9.9826,-9.9831,-9.9995,-9.9996,-10.0233,-10.0235,0,0,0,0,0,0,0,0,0,0,0,-9.9795,-9.9798,-9.9801,-9.9831,-9.9995,-9.9996,-10.0232,-10.0097,0,0,0,0,0,0,0,0,0,0,-9.9933,-9.9923,-9.9797,-9.9801,-9.9832,-9.9995,-9.9996,-10.0091,-10.0106,-10.0171,0,-10.0236,0,-10.024,-10.0253,-10.0254,0,0,0,-9.9815,-9.9911,-9.9939,-9.9801,-9.9834,-9.9995,-9.9917,-10.0099,-10.0116,-10.0191,-10.0239,-10.0247,-10.0244,-10.0255,-10.0256,-10.0691,-10.0693,0,0,-9.9806,-9.9834,-9.9927,-9.9951,-9.9931,-9.9911,-9.9922,-10.0109,-10.0161,-10.024,-10.0252,-10.0248,-10.0257,-10.0259,-10.0688,-10.0691,0,0,0,-9.979,-9.9829,-9.9852,-9.9942,-9.997,-9.9917,-9.9929,-10.0153,-10.0158,-10.0254,-10.0251,-10.0258,-10.0262,-10.0685,-10.0689,-10.0855,0,0,0,-9.9784,-9.9819,-9.9849,-9.9867,-9.9968,-10.0064,-9.9969,-10.0145,-10.0165,-10.025,-10.0259,-10.0264,-10.0682,-10.0687,-10.0844,-10.0928,0,0,0,-9.9779,-9.9818,-9.9849,-9.9868,-9.9941,-10.006,-10.0076,-10.0149,-10.0164,-10.0255,-10.0265,-10.068,-10.0686,-10.0834,-10.0912,-10.1054,0,0,0,-9.978,-9.999,-9.9852,-10.0086,-9.994,-10.0163,-10.0074,-10.0238,-10.0335,-10.026,-10.0682,-10.0689,-10.0831,-10.0902,-10.1043,-10.1179,-10.1239,0,0,-10.006,-10.0024,-10.016,-10.0042,-10.0297,-10.0135,-10.0414,-10.0473,-10.0453,-10.0612,-10.0622,-10.0848,-10.0911,-10.1052,-10.1557,-10.1605,0,0,0,-10.0258,-10.0356,-10.0417,-10.0514,-10.0569,-10.0622,-10.0637,-10.066,-10.0795,-10.0542,-10.0935,-10.0972,-10.1053,-10.1117,-10.1157,-10.1226,-10.0719,-10.0718,-10.0718,-10.0693,-10.0663,-10.0886,-10.0876,-10.0971,-10.0988,-10.1061,-10.1094,-10.1029,-10.1124,-10.1171,-10.1482,-10.1558,-10.1588,-10.1661,-10.1239,-10.1239,-10.124,-10.124,-10.1103,-10.1238,-10.1155,-10.1342,-10.1307,-10.1462,-10.1487,-10.1438,-10.1577,-10.1443,-10.1513,-10.137,-10.1641,-10.1703,-10.1253,-10.125,-10.1249,-10.1248,-10.1247,-10.1386,-10.1446,-10.1474,-10.1615,-10.1726,-10.1707,-10.1847,-10.1808,-10.1773,-10.1842,-10.189,-10.1887,-10.1881,-10.1868,-10.1869,-10.187,-10.1871,-10.1872,-10.1872,-10.1669,-10.1695,-10.182,-10.1901,-10.196,-10.2034,-10.2056,-10.2113,-10.2166,-10.2127,-10.2127,-10.2056,-10.1674,-10.1579,-10.1889,-10.1886,-10.1884,-10.1882,-10.1881,-10.2098,-10.1996,-10.2189,-10.225,-10.2343,-10.2459,-10.241,-10.253,-10.2571,-10.2642,-10.2557,-10.228,-10.2239,-10.2207,-10.2129,-10.2562,-10.2562,-10.2562,-10.2562,-10.2338,-10.2315,-10.2507,-10.2607,-10.2701,-10.2679,-10.2898,-10.2919,-10.2922,-10.2946,-10.2878,-10.2771,-10.274,-10.2717,-10.2674,-10.26,-10.3144,-10.3144,-10.3145,-10.2601,-10.2587,-10.2782,-10.279,-10.2861,-10.2923,-10.3129,-10.3246,-10.3229,-10.3168,-10.2965,-10.294,-10.2767,-10.2711,-10.2644,-10.2578,-10.2442,0,0]}]]